CW0641 Weather Reports


Display with metric or nautical units.
time (UTC)temp
F
wind
direction
speed
MPH
gust
MPH
rain 1hr
in
rain 24hr
in
rain mn
in
humidity
%
barometer
mb
20210419021618 79 113 2.0 4.0 0.00 0.00 0.00 28 1010.8
20210419021115 79 103 2.0 4.0 0.00 0.00 0.00 27 1010.8
20210419020112 79 106 2.0 4.0 0.00 0.00 0.00 28 1010.7
20210419015821 79 121 2.0 4.0 0.00 0.00 0.00 27 1010.7
20210419015242 79 114 2.0 5.0 0.00 0.00 0.00 27 1010.8
20210419013606 79 115 2.0 6.0 0.00 0.00 0.00 27 1010.8
20210419012816 79 148 2.0 7.0 0.00 0.00 0.00 27 1010.9
20210419012406 79 117 3.0 7.0 0.00 0.00 0.00 27 1010.8
20210419011622 79 111 3.0 7.0 0.00 0.00 0.00 28 1010.9
20210419011110 79 137 3.0 7.0 0.00 0.00 0.00 27 1010.9
20210419010608 79 90 3.0 7.0 0.00 0.00 0.00 27 1010.9
20210419010140 79 115 3.0 6.0 0.00 0.00 0.00 27 1011.0
20210419005840 79 123 3.0 7.0 0.00 0.00 0.00 27 1011.0
20210419005405 79 103 3.0 7.0 0.00 0.00 0.00 27 1010.9
20210419004616 79 134 3.0 7.0 0.00 0.00 0.00 28 1011.0
20210419003606 79 117 3.0 6.0 0.00 0.00 0.00 28 1011.0
20210419003242 79 119 3.0 6.0 0.00 0.00 0.00 27 1011.0
20210419003032 79 109 2.0 5.0 0.00 0.00 0.00 27 1011.1
20210419002531 80 120 2.0 6.0 0.00 0.00 0.00 27 1011.1
20210419001605 80 113 3.0 7.0 0.00 0.00 0.00 27 1011.3
20210419001105 80 115 3.0 7.0 0.00 0.00 0.00 27 1011.1
20210419000609 80 113 3.0 7.0 0.00 0.00 0.00 27 1011.3
20210419000107 80 105 3.0 7.0 0.00 0.00 0.00 27 1011.4
20210418235803 80 120 4.0 7.0 0.00 0.00 0.00 27 1011.4
20210418235406 80 117 4.0 7.0 0.00 0.00 0.00 27 1011.4
20210418234111 79 126 3.0 7.0 0.00 0.00 0.00 28 1011.5
20210418233624 78 111 3.0 6.0 0.00 0.00 0.00 29 1011.5
20210418233229 77 131 3.0 7.0 0.00 0.00 0.00 30 1011.6
20210418233055 76 147 3.0 7.0 0.00 0.00 0.00 31 1011.6
20210418232746 75 123 3.0 7.0 0.00 0.00 0.00 34 1011.7
20210418231600 75 137 3.0 6.0 0.00 0.00 0.00 34 1011.7
20210418230607 75 117 2.0 4.0 0.00 0.00 0.00 34 1011.7
20210418230058 75 125 2.0 4.0 0.00 0.00 0.00 35 1011.8
20210418225529 76 107 1.0 4.0 0.00 0.00 0.00 34 1011.9
20210418224601 76 104 1.0 4.0 0.00 0.00 0.00 34 1012.0
20210418224056 76 105 1.0 4.0 0.00 0.00 0.00 34 1012.1
20210418223600 76 105 2.0 4.0 0.00 0.00 0.00 35 1012.1
20210418223101 76 105 2.0 4.0 0.00 0.00 0.00 35 1012.2
20210418222907 76 107 1.0 4.0 0.00 0.00 0.00 34 1012.2
20210418222417 76 105 0.0 3.0 0.00 0.00 0.00 34 1012.3
20210418221625 77 111 1.0 4.0 0.00 0.00 0.00 34 1012.3
20210418221058 77 111 1.0 4.0 0.00 0.00 0.00 33 1012.3
20210418220555 77 114 1.0 4.0 0.00 0.00 0.00 33 1012.3
20210418220117 77 106 1.0 3.0 0.00 0.00 0.00 34 1012.3
20210418215838 77 103 1.0 4.0 0.00 0.00 0.00 34 1012.4
20210418215415 77 102 1.0 4.0 0.00 0.00 0.00 34 1012.4
20210418214607 78 109 0.0 2.0 0.00 0.00 0.00 34 1012.5
20210418214035 78 103 0.0 0.0 0.00 0.00 0.00 33 1012.5
20210418213549 78 116 0.0 0.0 0.00 0.00 0.00 32 1012.4
20210418213042 79 110 0.0 2.0 0.00 0.00 0.00 32 1012.5
20210418212852 79 111 1.0 4.0 0.00 0.00 0.00 32 1012.5
20210418212356 79 103 2.0 6.0 0.00 0.00 0.00 31 1012.5
20210418211533 78 101 2.0 6.0 0.00 0.00 0.00 32 1012.5
20210418211022 78 105 2.0 6.0 0.00 0.00 0.00 32 1012.6
20210418210048 77 113 2.0 7.0 0.00 0.00 0.00 35 1012.6
20210418205923 76 111 2.0 7.0 0.00 0.00 0.00 36 1012.6
20210418204533 76 54 0.0 4.0 0.00 0.00 0.00 42 1012.6
20210418204024 76 27 0.0 2.0 0.00 0.00 0.00 43 1012.8
20210418203519 76 26 0.0 1.0 0.00 0.00 0.00 42 1012.8
20210418203020 76 25 0.0 2.0 0.00 0.00 0.00 41 1012.8
20210418202831 76 25 0.0 2.0 0.00 0.00 0.00 42 1012.8
20210418202317 76 25 0.0 2.0 0.00 0.00 0.00 41 1012.6
20210418201506 76 24 0.0 0.0 0.00 0.00 0.00 43 1012.6
20210418200952 76 24 0.0 0.0 0.00 0.00 0.00 42 1012.8
20210418200459 76 24 0.0 0.0 0.00 0.00 0.00 42 1012.8
20210418195818 76 24 0.0 0.0 0.00 0.00 0.00 42 1012.8
20210418195134 77 24 0.0 0.0 0.00 0.00 0.00 42 1012.9
20210418194444 77 24 0.0 0.0 0.00 0.00 0.00 42 1012.9
20210418193406 77 24 0.0 0.0 0.00 0.00 0.00 43 1012.9
20210418193032 77 24 0.0 0.0 0.00 0.00 0.00 42 1013.0
20210418192858 78 24 0.0 0.0 0.00 0.00 0.00 42 1013.0
20210418192056 78 24 0.0 0.0 0.00 0.00 0.00 42 1013.1
20210418191400 78 24 0.0 0.0 0.00 0.00 0.00 42 1013.1
20210418190358 78 24 0.0 0.0 0.00 0.00 0.00 41 1013.1
20210418185856 78 24 0.0 0.0 0.00 0.00 0.00 40 1013.0
20210418185649 79 24 0.0 0.0 0.00 0.00 0.00 40 1013.0
20210418184916 79 24 0.0 0.0 0.00 0.00 0.00 39 1013.0
20210418184324 80 24 0.0 1.0 0.00 0.00 0.00 39 1012.9
20210418183827 80 24 0.0 2.0 0.00 0.00 0.00 38 1012.9
20210418183317 80 24 0.0 2.0 0.00 0.00 0.00 37 1012.9
20210418182903 80 24 0.0 2.0 0.00 0.00 0.00 37 1012.9
20210418180823 81 24 1.0 4.0 0.00 0.00 0.00 37 1012.6
20210418180311 81 24 0.0 4.0 0.00 0.00 0.00 36 1012.6
20210418175706 81 26 2.0 5.0 0.00 0.00 0.00 36 1012.5
20210418174819 82 22 2.0 4.0 0.00 0.00 0.00 36 1012.4
20210418174308 82 24 1.0 3.0 0.00 0.00 0.00 36 1012.3
20210418173818 82 26 0.0 4.0 0.00 0.00 0.00 36 1012.2
20210418173300 82 26 1.0 4.0 0.00 0.00 0.00 35 1012.1
20210418173021 82 19 1.0 4.0 0.00 0.00 0.00 36 1012.1
20210418172843 82 19 0.0 4.0 0.00 0.00 0.00 36 1012.0
20210418171854 82 26 0.0 3.0 0.00 0.00 0.00 36 1011.9
20210418171300 83 26 1.0 3.0 0.00 0.00 0.00 36 1012.0
20210418170801 83 26 1.0 3.0 0.00 0.00 0.00 36 1011.9
20210418170300 83 26 1.0 4.0 0.00 0.00 0.00 36 1011.8
20210418165814 83 26 1.0 4.0 0.00 0.00 0.00 36 1011.6
20210418165432 83 19 1.0 5.0 0.00 0.00 0.00 37 1011.7
20210418164802 83 10 1.0 5.0 0.00 0.00 0.00 37 1011.6
20210418164255 83 23 1.0 4.0 0.00 0.00 0.00 38 1011.5
20210418163753 84 21 2.0 5.0 0.00 0.00 0.00 37 1011.4
20210418163328 84 16 2.0 5.0 0.00 0.00 0.00 37 1011.4
20210418163055 84 13 2.0 7.0 0.00 0.00 0.00 37 1011.5
20210418161943 85 22 3.0 7.0 0.00 0.00 0.00 37 1011.3
20210418161240 85 15 3.0 7.0 0.00 0.00 0.00 36 1011.3
20210418160743 85 21 3.0 7.0 0.00 0.00 0.00 36 1011.3
20210418160230 85 13 3.0 7.0 0.00 0.00 0.00 35 1011.3
20210418155845 86 14 3.0 9.0 0.00 0.00 0.00 36 1011.3
20210418155540 86 5 3.0 9.0 0.00 0.00 0.00 35 1011.3
20210418154732 87 355 2.0 6.0 0.00 0.00 0.00 35 1011.3
20210418153728 87 5 2.0 9.0 0.00 0.00 0.00 33 1011.1
20210418153224 88 23 3.0 9.0 0.00 0.00 0.00 32 1011.3
20210418152438 89 0 3.0 9.0 0.00 0.00 0.00 30 1011.1
20210418151818 90 5 4.0 9.0 0.00 0.00 0.00 28 1011.1
20210418151218 91 9 2.0 7.0 0.00 0.00 0.00 26 1011.1
20210418150717 91 5 0.0 4.0 0.00 0.00 0.00 20 1011.1
20210418150218 91 85 0.0 2.0 0.00 0.00 0.00 17 1011.0
20210418145549 91 86 0.0 2.0 0.00 0.00 0.00 17 1011.0
20210418144720 91 81 0.0 3.0 0.00 0.00 0.00 17 1011.0
20210418143714 91 104 1.0 4.0 0.00 0.00 0.00 18 1011.0
20210418143228 91 137 1.0 4.0 0.00 0.00 0.00 17 1010.9
20210418142901 91 119 0.0 3.0 0.00 0.00 0.00 18 1010.9
20210418142559 91 142 1.0 7.0 0.00 0.00 0.00 18 1010.9
20210418141833 91 114 2.0 7.0 0.00 0.00 0.00 17 1010.9
20210418141210 91 101 2.0 7.0 0.00 0.00 0.00 18 1011.0
20210418140705 91 138 1.0 7.0 0.00 0.00 0.00 18 1011.0
20210418140211 91 132 2.0 7.0 0.00 0.00 0.00 18 1011.0
20210418135927 91 100 2.0 7.0 0.00 0.00 0.00 19 1011.0
20210418135731 91 109 2.0 7.0 0.00 0.00 0.00 18 1011.1
20210418134737 91 142 2.0 7.0 0.00 0.00 0.00 18 1011.0
20210418134217 91 108 3.0 8.0 0.00 0.00 0.00 18 1011.0
20210418133704 91 146 3.0 8.0 0.00 0.00 0.00 17 1011.1
20210418133209 91 109 4.0 12.0 0.00 0.00 0.00 18 1011.1
20210418132834 91 147 4.0 12.0 0.00 0.00 0.00 18 1011.1
20210418132350 92 114 2.0 9.0 0.00 0.00 0.00 17 1011.1
20210418131212 92 125 2.0 7.0 0.00 0.00 0.00 17 1011.1
20210418130709 92 118 2.0 10.0 0.00 0.00 0.00 18 1011.3
20210418130327 92 181 2.0 10.0 0.00 0.00 0.00 18 1011.3
20210418130129 92 148 2.0 8.0 0.00 0.00 0.00 18 1011.3
20210418124232 93 122 3.0 8.0 0.00 0.00 0.00 18 1011.4
20210418123957 93 105 4.0 10.0 0.00 0.00 0.00 18 1011.4
20210418123646 92 115 4.0 10.0 0.00 0.00 0.00 19 1011.5
20210418123253 93 147 4.0 10.0 0.00 0.00 0.00 19 1011.6
20210418122825 92 162 3.0 9.0 0.00 0.00 0.00 19 1011.5
20210418121703 92 123 2.0 9.0 0.00 0.00 0.00 18 1011.6
20210418121222 92 5 3.0 9.0 0.00 0.00 0.00 18 1011.6
20210418120736 92 136 3.0 9.0 0.00 0.00 0.00 18 1011.6
20210418120043 92 175 3.0 14.0 0.00 0.00 0.00 20 1011.7
20210418115839 92 142 4.0 14.0 0.00 0.00 0.00 20 1011.8
20210418114710 92 210 4.0 9.0 0.00 0.00 0.00 19 1011.7
20210418114208 92 149 4.0 12.0 0.00 0.00 0.00 20 1011.8
20210418113705 92 170 5.0 12.0 0.00 0.00 0.00 21 1011.9
20210418113216 91 146 4.0 10.0 0.00 0.00 0.00 20 1011.9
20210418113023 91 125 4.0 10.0 0.00 0.00 0.00 20 1011.9
20210418111712 92 96 4.0 10.0 0.00 0.00 0.00 20 1012.0
20210418111210 92 205 3.0 9.0 0.00 0.00 0.00 20 1012.0
20210418110721 92 156 3.0 9.0 0.00 0.00 0.00 20 1011.9
20210418110223 92 159 4.0 10.0 0.00 0.00 0.00 20 1012.0
20210418105947 91 173 3.0 10.0 0.00 0.00 0.00 20 1012.0
20210418105551 91 163 3.0 8.0 0.00 0.00 0.00 20 1012.0
20210418104705 91 149 4.0 12.0 0.00 0.00 0.00 20 1012.0
20210418104211 91 153 4.0 12.0 0.00 0.00 0.00 20 1012.2
20210418103707 91 176 4.0 10.0 0.00 0.00 0.00 20 1012.2
20210418103217 91 121 4.0 12.0 0.00 0.00 0.00 20 1012.2
20210418102923 91 194 5.0 12.0 0.00 0.00 0.00 21 1012.3
20210418102722 91 159 4.0 11.0 0.00 0.00 0.00 21 1012.4
20210418101709 91 167 4.0 13.0 0.00 0.00 0.00 21 1012.4
20210418101217 91 158 4.0 13.0 0.00 0.00 0.00 21 1012.4
20210418100227 91 193 4.0 12.0 0.00 0.00 0.00 21 1012.5
20210418095945 91 169 4.0 12.0 0.00 0.00 0.00 21 1012.5
20210418095738 90 153 4.0 12.0 0.00 0.00 0.00 21 1012.6
20210418094705 90 167 5.0 9.0 0.00 0.00 0.00 21 1012.6
20210418094207 90 207 6.0 13.0 0.00 0.00 0.00 21 1012.8
20210418093704 89 175 7.0 16.0 0.00 0.00 0.00 21 1012.8
20210418093205 89 185 6.0 16.0 0.00 0.00 0.00 21 1012.9
20210418092446 89 161 5.0 14.0 0.00 0.00 0.00 20 1012.9
20210418091707 89 200 4.0 11.0 0.00 0.00 0.00 20 1012.9
20210418090221 89 195 4.0 11.0 0.00 0.00 0.00 20 1013.0
20210418085938 89 121 5.0 15.0 0.00 0.00 0.00 20 1013.0
20210418085522 88 188 5.0 15.0 0.00 0.00 0.00 20 1013.2
20210418084708 87 131 4.0 12.0 0.00 0.00 0.00 20 1013.2
20210418084210 87 174 4.0 16.0 0.00 0.00 0.00 19 1013.3
20210418083711 88 127 3.0 16.0 0.00 0.00 0.00 20 1013.2
20210418083210 87 127 3.0 10.0 0.00 0.00 0.00 20 1013.3
20210418082837 88 127 4.0 10.0 0.00 0.00 0.00 20 1013.3
20210418082330 87 147 3.0 12.0 0.00 0.00 0.00 20 1013.2
20210418081710 88 116 3.0 12.0 0.00 0.00 0.00 20 1013.2
20210418081218 87 196 4.0 11.0 0.00 0.00 0.00 20 1013.2
20210418080708 87 194 4.0 12.0 0.00 0.00 0.00 21 1013.2
20210418080226 87 131 5.0 12.0 0.00 0.00 0.00 21 1013.2
20210418074704 86 201 4.0 10.0 0.00 0.00 0.00 21 1013.2
20210418074212 85 132 3.0 12.0 0.00 0.00 0.00 22 1013.2
20210418073729 85 118 3.0 12.0 0.00 0.00 0.00 22 1013.2
20210418073245 85 173 4.0 12.0 0.00 0.00 0.00 22 1013.2
20210418072741 84 171 5.0 12.0 0.00 0.00 0.00 23 1013.2
20210418072337 84 121 3.0 8.0 0.00 0.00 0.00 22 1013.3
20210418071704 84 161 3.0 8.0 0.00 0.00 0.00 23 1013.4
20210418071210 84 160 3.0 8.0 0.00 0.00 0.00 22 1013.5
20210418070703 84 158 4.0 8.0 0.00 0.00 0.00 23 1013.4
20210418070207 84 150 4.0 8.0 0.00 0.00 0.00 22 1013.4
20210418065839 83 142 3.0 7.0 0.00 0.00 0.00 24 1013.4
20210418064707 83 137 3.0 8.0 0.00 0.00 0.00 23 1013.4
20210418064214 83 182 2.0 8.0 0.00 0.00 0.00 23 1013.4
20210418063707 83 145 2.0 8.0 0.00 0.00 0.00 23 1013.4
20210418062813 83 154 3.0 8.0 0.00 0.00 0.00 23 1013.3
20210418061200 82 146 4.0 10.0 0.00 0.00 0.00 25 1013.3
20210418060236 82 130 3.0 10.0 0.00 0.00 0.00 24 1013.3
20210418060031 82 74 3.0 10.0 0.00 0.00 0.00 26 1013.3
20210418055621 82 150 5.0 12.0 0.00 0.00 0.00 26 1013.3
20210418053708 81 165 2.0 10.0 0.00 0.00 0.00 27 1013.1
20210418053203 81 109 2.0 7.0 0.00 0.00 0.00 27 1013.1
20210418052630 80 140 2.0 7.0 0.00 0.00 0.00 28 1013.1
20210418051656 80 143 2.0 6.0 0.00 0.00 0.00 28 1013.0
20210418051211 80 135 2.0 7.0 0.00 0.00 0.00 28 1012.9
20210418050718 79 130 3.0 7.0 0.00 0.00 0.00 27 1012.9
20210418050156 79 132 3.0 8.0 0.00 0.00 0.00 27 1012.9
20210418045912 78 128 3.0 8.0 0.00 0.00 0.00 27 1012.9
20210418045446 78 141 3.0 8.0 0.00 0.00 0.00 27 1012.9
20210418043700 77 132 2.0 7.0 0.00 0.00 0.00 28 1012.9
20210418043159 76 151 1.0 5.0 0.00 0.00 0.00 29 1012.8
20210418042858 76 140 2.0 5.0 0.00 0.00 0.00 30 1012.8
20210418042727 75 134 2.0 4.0 0.00 0.00 0.00 30 1012.8
20210418041656 74 128 1.0 3.0 0.00 0.00 0.00 30 1012.8
20210418040152 74 118 2.0 5.0 0.00 0.00 0.00 30 1012.5
20210418035843 74 117 2.0 6.0 0.00 0.00 0.00 29 1012.4
20210418035454 74 113 2.0 6.0 0.00 0.00 0.00 29 1012.4
20210418034702 73 121 2.0 7.0 0.00 0.00 0.00 29 1012.4
20210418034154 73 125 3.0 7.0 0.00 0.00 0.00 29 1012.4
20210418033653 73 120 3.0 7.0 0.00 0.00 0.00 29 1012.3
20210418033159 73 138 3.0 6.0 0.00 0.00 0.00 29 1012.4
20210418032933 73 113 3.0 6.0 0.00 0.00 0.00 29 1012.4
20210418032755 73 123 3.0 6.0 0.00 0.00 0.00 30 1012.4
20210418031648 72 134 3.0 5.0 0.00 0.00 0.00 30 1012.3
20210418031148 71 131 3.0 7.0 0.00 0.00 0.00 31 1012.3
20210418030648 71 126 3.0 7.0 0.00 0.00 0.00 32 1012.3
20210418030315 70 107 3.0 6.0 0.00 0.00 0.00 33 1012.3
20210418030056 69 136 3.0 6.0 0.00 0.00 0.00 33 1012.3
20210418025629 68 119 3.0 6.0 0.00 0.00 0.00 35 1012.3
20210418024649 68 128 3.0 5.0 0.00 0.00 0.00 36 1012.3
20210418023649 67 120 2.0 4.0 0.00 0.00 0.00 36 1012.3
20210418023148 68 115 2.0 4.0 0.00 0.00 0.00 37 1012.3
20210418022818 68 110 2.0 6.0 0.00 0.00 0.00 37 1012.3
20210418022239 68 115 2.0 6.0 0.00 0.00 0.00 36 1012.2